EN

Hourly Weather Zardab

Today, 8 March, Monday

Time Temperature Precipitation Wind Pressure Humidity
00:00 +3°C° 0 mm 6 mps 766 mmHg 56%
01:00 +2°C° 0 mm 5 mps 766 mmHg 57%
02:00 +3°C° 0 mm 4 mps 765 mmHg 58%
03:00 +3°C° 0 mm 4 mps 765 mmHg 59%
04:00 +3°C° 0 mm 4 mps 765 mmHg 59%
05:00 +3°C° 0 mm 3 mps 765 mmHg 59%
06:00 +3°C° 0 mm 3 mps 765 mmHg 59%
07:00 +3°C° 0 mm 3 mps 764 mmHg 59%
08:00 +3°C° 0 mm 3 mps 764 mmHg 58%
09:00 +4°C° 0 mm 3 mps 764 mmHg 58%
10:00 +4°C° 0 mm 3 mps 763 mmHg 59%
11:00 +4°C° 0 mm 3 mps 762 mmHg 60%
12:00 +5°C° 0 mm 3 mps 762 mmHg 61%
13:00 +6°C° 0 mm 2 mps 761 mmHg 61%
14:00 +7°C° 0 mm 2 mps 760 mmHg 61%
15:00 +7°C° 0 mm 2 mps 759 mmHg 61%
16:00 +7°C° 0 mm 2 mps 759 mmHg 63%
17:00 +8°C° 0 mm 1 mps 759 mmHg 65%
18:00 +8°C° 0 mm 1 mps 759 mmHg 67%
19:00 +7°C° 0 mm 2 mps 759 mmHg 67%
20:00 +7°C° 0 mm 3 mps 760 mmHg 67%
21:00 +6°C° 0 mm 4 mps 760 mmHg 68%
22:00 +5°C° 0.3 mm 4 mps 760 mmHg 71%
23:00 +5°C° 0.3 mm 4 mps 760 mmHg 74%

Tomorrow, 9 March, Tuesday

Time Temperature Precipitation Wind Pressure Humidity
00:00 +5°C° 0.3 mm 4 mps 760 mmHg 77%
01:00 +4°C° 0 mm 4 mps 760 mmHg 78%
02:00 +3°C° 0 mm 4 mps 760 mmHg 80%
03:00 +3°C° 0 mm 3 mps 761 mmHg 81%
04:00 +2°C° 0 mm 3 mps 761 mmHg 79%
05:00 +2°C° 0 mm 3 mps 761 mmHg 78%
06:00 +2°C° 0 mm 3 mps 761 mmHg 76%
07:00 +3°C° 0 mm 3 mps 761 mmHg 70%
08:00 +5°C° 0 mm 3 mps 761 mmHg 64%
09:00 +7°C° 0 mm 3 mps 761 mmHg 57%
10:00 +9°C° 0 mm 3 mps 761 mmHg 50%
11:00 +11°C° 0 mm 3 mps 760 mmHg 43%
12:00 +12°C° 0 mm 3 mps 760 mmHg 35%
13:00 +13°C° 0 mm 4 mps 760 mmHg 33%
14:00 +14°C° 0 mm 4 mps 760 mmHg 30%
15:00 +14°C° 0 mm 4 mps 760 mmHg 27%
16:00 +13°C° 0 mm 4 mps 760 mmHg 31%
17:00 +12°C° 0 mm 3 mps 761 mmHg 34%
18:00 +11°C° 0 mm 3 mps 761 mmHg 38%
19:00 +10°C° 0 mm 3 mps 762 mmHg 45%
20:00 +9°C° 0 mm 3 mps 762 mmHg 52%
21:00 +8°C° 0 mm 3 mps 763 mmHg 59%
22:00 +7°C° 0 mm 3 mps 763 mmHg 66%
23:00 +5°C° 0 mm 3 mps 763 mmHg 73%

Day after tomorrow, 10 March, Wednesday

Time Temperature Precipitation Wind Pressure Humidity
00:00 +4°C° 0 mm 3 mps 763 mmHg 80%
01:00 +5°C° 0 mm 2 mps 763 mmHg 82%
02:00 +4°C° 0 mm 2 mps 763 mmHg 83%
03:00 +5°C° 0 mm 1 mps 763 mmHg 85%
04:00 +4°C° 0 mm 1 mps 764 mmHg 87%
05:00 +4°C° 0 mm 1 mps 764 mmHg 88%
06:00 +4°C° 0 mm 1 mps 764 mmHg 89%
07:00 +5°C° 0 mm 1 mps 764 mmHg 77%
08:00 +7°C° 0 mm 1 mps 765 mmHg 65%
09:00 +8°C° 0 mm 2 mps 765 mmHg 54%
10:00 +9°C° 0 mm 2 mps 765 mmHg 46%
11:00 +12°C° 0 mm 2 mps 764 mmHg 39%
12:00 +13°C° 0 mm 2 mps 764 mmHg 31%
13:00 +14°C° 0 mm 2 mps 764 mmHg 29%
14:00 +14°C° 0 mm 2 mps 763 mmHg 28%
15:00 +15°C° 0 mm 2 mps 763 mmHg 26%
16:00 +14°C° 0 mm 2 mps 763 mmHg 30%
17:00 +13°C° 0 mm 2 mps 763 mmHg 34%
18:00 +12°C° 0 mm 2 mps 764 mmHg 37%
19:00 +9°C° 0 mm 3 mps 764 mmHg 50%
20:00 +7°C° 0 mm 4 mps 764 mmHg 62%
21:00 +6°C° 0 mm 5 mps 764 mmHg 75%
22:00 +5°C° 0 mm 5 mps 764 mmHg 75%
23:00 +5°C° 0 mm 4 mps 763 mmHg 75%

11 March, Thursday

Time Temperature Precipitation Wind Pressure Humidity
00:00 +4°C° 0 mm 4 mps 763 mmHg 75%
01:00 +4°C° 0 mm 3 mps 762 mmHg 74%
02:00 +5°C° 0 mm 2 mps 762 mmHg 73%
03:00 +5°C° 0 mm 2 mps 761 mmHg 72%
04:00 +7°C° 0 mm 1 mps 761 mmHg 71%
05:00 +7°C° 0 mm 1 mps 761 mmHg 70%
06:00 +7°C° 0 mm 1 mps 760 mmHg 69%
07:00 +6°C° 0.1 mm 0 mps 760 mmHg 71%
08:00 +6°C° 0.1 mm 0 mps 760 mmHg 72%
09:00 +6°C° 0.1 mm 0 mps 760 mmHg 74%
10:00 +7°C° 0.1 mm 1 mps 759 mmHg 76%
11:00 +7°C° 0.1 mm 2 mps 759 mmHg 78%
12:00 +7°C° 0.1 mm 3 mps 758 mmHg 80%
13:00 +6°C° 0.1 mm 4 mps 758 mmHg 80%
14:00 +6°C° 0.1 mm 5 mps 757 mmHg 80%
15:00 +5°C° 0.1 mm 6 mps 757 mmHg 80%
16:00 +5°C° 0.2 mm 6 mps 757 mmHg 78%
17:00 +4°C° 0.2 mm 7 mps 757 mmHg 75%
18:00 +4°C° 0.2 mm 7 mps 757 mmHg 73%
19:00 +4°C° 0.4 mm 7 mps 757 mmHg 73%
20:00 +3°C° 0.4 mm 7 mps 758 mmHg 73%
21:00 +3°C° 0.4 mm 7 mps 758 mmHg 73%
22:00 +2°C° 0.3 mm 6 mps 758 mmHg 73%
23:00 +2°C° 0.3 mm 5 mps 759 mmHg 72%

12 March, Friday

Time Temperature Precipitation Wind Pressure Humidity
00:00 +3°C° 0.3 mm 4 mps 759 mmHg 71%
01:00 +1°C° 0.9 mm 4 mps 759 mmHg 79%
02:00 0°C° 0.9 mm 5 mps 760 mmHg 87%
03:00 -1°C° 0.9 mm 5 mps 760 mmHg 95%
04:00 -1°C° 1.3 mm 5 mps 761 mmHg 96%
05:00 -1°C° 1.3 mm 5 mps 762 mmHg 96%
06:00 -2°C° 1.3 mm 5 mps 762 mmHg 97%
07:00 -3°C° 1.3 mm 6 mps 763 mmHg 96%
08:00 -3°C° 1.3 mm 6 mps 764 mmHg 96%
09:00 -3°C° 1.3 mm 6 mps 765 mmHg 96%
10:00 -3°C° 0.8 mm 6 mps 765 mmHg 96%
11:00 -3°C° 0.8 mm 6 mps 765 mmHg 96%
12:00 -1°C° 0.8 mm 5 mps 765 mmHg 96%
13:00 -2°C° 0.5 mm 6 mps 765 mmHg 95%
14:00 -2°C° 0.5 mm 6 mps 766 mmHg 94%
15:00 -2°C° 0.5 mm 6 mps 766 mmHg 94%
16:00 -3°C° 0.2 mm 7 mps 767 mmHg 92%
17:00 -4°C° 0.2 mm 8 mps 768 mmHg 91%
18:00 -5°C° 0.2 mm 9 mps 768 mmHg 90%
19:00 -5°C° 0.3 mm 8 mps 769 mmHg 87%
20:00 -5°C° 0.3 mm 8 mps 770 mmHg 83%
21:00 -6°C° 0.3 mm 8 mps 771 mmHg 80%
22:00 -6°C° 0.2 mm 7 mps 772 mmHg 81%
23:00 -6°C° 0.2 mm 7 mps 772 mmHg 82%

13 March, Saturday

Time Temperature Precipitation Wind Pressure Humidity
00:00 -5°C° 0.2 mm 6 mps 773 mmHg 83%
01:00 -5°C° 0.1 mm 5 mps 773 mmHg 84%
02:00 -4°C° 0.1 mm 4 mps 774 mmHg 85%
03:00 -4°C° 0.1 mm 2 mps 774 mmHg 86%
04:00 -4°C° 0 mm 2 mps 774 mmHg 87%
05:00 -4°C° 0 mm 2 mps 775 mmHg 88%
06:00 -5°C° 0 mm 2 mps 775 mmHg 89%
07:00 -5°C° 0 mm 3 mps 775 mmHg 86%
08:00 -4°C° 0 mm 3 mps 775 mmHg 82%
09:00 -2°C° 0 mm 3 mps 775 mmHg 79%
10:00 -1°C° 0 mm 3 mps 775 mmHg 78%
11:00 -1°C° 0 mm 3 mps 775 mmHg 76%
12:00 +1°C° 0 mm 2 mps 774 mmHg 75%
13:00 +1°C° 0 mm 2 mps 773 mmHg 75%
14:00 +2°C° 0 mm 2 mps 773 mmHg 76%
15:00 +2°C° 0 mm 2 mps 772 mmHg 76%
16:00 +1°C° 0 mm 2 mps 772 mmHg 80%
17:00 +1°C° 0 mm 2 mps 772 mmHg 83%
18:00 -1°C° 0 mm 2 mps 772 mmHg 86%
19:00 -1°C° 0 mm 2 mps 772 mmHg 86%
20:00 -1°C° 0 mm 2 mps 773 mmHg 86%
21:00 +1°C° 0 mm 1 mps 773 mmHg 86%
22:00 0°C° 0 mm 1 mps 773 mmHg 87%
23:00 0°C° 0 mm 1 mps 772 mmHg 88%
Show more

We Need Your Consent

Meteoprog and our Service Providers may store and access personal data such as cookies, device identifiers or other similar technologies on your device and process such data to personalise content and ads, as well as provide social media features and to analyse the traffic.

  • Store and/or access information on your device

    Cookies, device identifiers or other information can be stored or accessed on your device for the purposes indicated above.

  • Personalised ads and content, ad and content measurement, audience insights, and products development

    Ads and content can be personalised based on a profile. More data can be added to better personalise ads and content. Ad and content performance can be measured. Insights about the audience who saw the ads and content can be derived. Such data can be used to develop or improve user’s experience, systems and software.

By clicking ‘I Agree’ you will allow the use of indicated cookies, device identifiers, web beacons or other similar technologies. Your settings can be changed in the browser on your device.

For certain purposes, legitimate interests may be relied on, rather than consent. You can read more about this in our Privacy and Cookie Policy.